Location: Newark
(53.9000°S, 71.3000°W)
Time: 23:18:01
(UTC+00:00)

Envisat - Visible Passes

Search period start: 19 July 2019 00:00
Search period end: 29 July 2019 00:00
Orbit: 764 x 766 km, 98.1° (Epoch: 19 July)

Date Brightness Start Highest point End Pass type
(mag) Time Alt. Az. Time Alt. Az. Time Alt. Az.
19 Jul 5.2 09:17:27 10° ENE 09:21:21 22° SE 09:25:17 10° S visible
19 Jul 2.9 10:54:43 10° NNE 10:59:52 80° WNW 11:05:05 10° SSW visible
19 Jul 5.0 23:05:04 13° NE 23:05:04 13° NE 23:05:41 10° NE visible
20 Jul 5.3 00:45:16 16° NNW 00:45:16 16° NNW 00:46:11 10° NNW visible
20 Jul 5.8 08:42:38 10° ESE 08:45:07 14° SE 08:47:36 10° SSE visible
20 Jul 3.6 10:18:07 10° NE 10:23:09 57° ESE 10:28:13 10° S visible
20 Jul 4.0 11:58:09 10° NNW 12:02:30 28° W 12:06:55 10° SSW visible
21 Jul 4.8 00:07:55 20° N 00:07:55 20° N 00:09:27 10° N visible
21 Jul 4.7 09:42:06 10° ENE 09:46:37 32° ESE 09:51:10 10° S visible
21 Jul 3.2 11:20:28 10° N 11:25:28 51° W 11:30:32 10° SSW visible
21 Jul 4.7 23:30:34 18° NNE 23:30:34 18° NNE 23:32:05 10° NNE visible
22 Jul 5.5 01:10:45 13° NW 01:10:45 13° NW 01:11:21 10° NW visible
22 Jul 5.4 09:06:40 10° E 09:10:15 19° SE 09:13:51 10° S visible
22 Jul 3.0 10:43:28 10° NNE 10:48:37 86° ESE 10:53:50 10° SSW visible
22 Jul 4.9 22:53:13 13° NE 22:53:13 13° NE 22:53:54 10° NE visible
23 Jul 4.9 00:33:24 21° NNW 00:33:24 21° NNW 00:35:00 10° NNW visible
23 Jul 5.9 08:32:17 10° ESE 08:34:04 12° SE 08:35:52 10° SSE visible
23 Jul 4.0 10:07:02 10° NE 10:11:57 47° ESE 10:16:55 10° S visible
23 Jul 3.8 11:46:32 10° NNW 11:51:10 33° W 11:55:50 10° SSW visible
23 Jul 4.5 23:56:02 24° N 23:56:02 24° N 23:58:06 10° N visible
24 Jul 5.8 01:36:14 10° WNW 01:36:14 10° WNW 01:36:14 10° WNW visible
24 Jul 4.9 09:31:11 10° ENE 09:35:28 28° ESE 09:39:48 10° S visible
24 Jul 3.0 11:09:05 10° N 11:14:10 62° WNW 11:19:20 10° SSW visible
24 Jul 4.5 23:18:40 20° NE 23:18:40 20° NE 23:20:32 10° NNE visible
25 Jul 5.1 00:58:52 19° NW 00:58:52 19° NW 01:00:17 10° NW visible
25 Jul 5.6 08:55:59 10° E 08:59:09 17° SE 09:02:21 10° SSE visible
25 Jul 3.2 10:32:16 10° NNE 10:37:22 73° ESE 10:42:34 10° SSW visible
25 Jul 4.9 22:41:17 12° ENE 22:41:17 12° ENE 22:42:00 10° NE visible
26 Jul 4.4 00:21:28 27° NNW 00:21:28 27° NNW 00:23:46 10° NNW visible
26 Jul 6.1 08:22:39 10° SE 08:23:01 10° SE 08:23:24 10° SE visible
26 Jul 4.3 09:56:00 10° NE 10:00:46 40° ESE 10:05:35 10° S visible
26 Jul 3.5 11:35:01 10° NNW 11:39:50 39° W 11:44:42 10° SSW visible
26 Jul 4.2 23:44:05 28° NNE 23:44:05 28° NNE 23:46:41 10° N visible
27 Jul 5.4 01:24:16 15° WNW 01:24:16 15° WNW 01:25:17 10° NW visible
27 Jul 5.2 09:20:19 10° ENE 09:24:20 24° SE 09:28:24 10° S visible
27 Jul 3.0 10:57:46 10° N 11:02:54 74° WNW 11:08:06 10° SSW visible
27 Jul 4.4 23:06:40 20° NE 23:06:40 20° NE 23:08:54 10° NE visible
28 Jul 4.6 00:46:51 27° NW 00:46:51 27° NW 00:49:10 10° NNW visible
28 Jul 5.8 08:45:23 10° E 08:48:05 14° SE 08:50:48 10° SSE visible
28 Jul 3.5 10:21:07 10° NNE 10:26:10 61° ESE 10:31:17 10° S visible
28 Jul 4.9 22:29:15 11° ENE 22:29:15 11° ENE 22:29:53 10° ENE visible
